Location: Cuzcurrita-R�o Tir�n
(42.5415°N, 2.9642°W)
Time: 21:58:14
(UTC+00:00)

ATLAS 5 CENTAUR R/B - Pass Details

Date: 17 January 2021
Orbit: 511 x 1147 km, 63.3° (Epoch: 16 February)

Event Time Altitude Azimuth Distance (km) Brightness Sun altitude
Rises 17:50:30 0° 210° (SSW) 2,614 5.6 -8.2°
Reaches altitude 10° 17:52:35 10° 208° (SSW) 1,752 4.7 -8.6°
Maximum altitude 17:56:26 74° 123° (ESE) 578 1.3 -9.2°
Drops below altitude 10° 18:00:45 10° 39° (NE) 1,960 3.6 -10.0°
Enters shadow 18:00:57 - 39° (NE) 2,046 3.7 -10.0°
